Weather History for KGWO - August, 2013

Change the Weather History Date:

Saturday, August 3, 2013

  Actual Average Record
Temperature  
Mean Temperature 83 °F 82 °F  
Max Temperature 94 °F 92 °F 102 °F (2010)
Min Temperature 71 °F 71 °F 57 °F (1976)
Degree Days  
Heating Degree Days 0 0  
Month to date heating degree days 0 0  
Since 1 June heating degree days 0 0  
Since 1 July heating degree days 0 0  
Cooling Degree Days 18 16  
Month to date cooling degree days 53 48  
Year to date cooling degree days 1187 1296  
Since 1 June cooling degree days 911 966  
Growing Degree Days 32 (Base 50)    
Moisture  
Dew Point 74 °F    
Average Humidity 75    
Maximum Humidity 94    
Minimum Humidity 56    
Precipitation  
Precipitation 0.00 in 0.09 in 0.81 in (1975)
Month to date precipitation 0.00 0.26  
Year to date precipitation 35.72 31.50  
Sea Level Pressure  
Sea Level Pressure 30.00 in    
Wind  
Wind Speed 2 mph (SW)    
Max Wind Speed 10 mph    
Max Gust Speed 17 mph    
Visibility 8 miles    
Events      
T = Trace of Precipitation, MM = Missing Value Source: NWS Daily Summary

Daily Weather History Graph

Daily Weather History Graph

Search for Another Location

Airport or City:

Trip Planner

Search our weather history database for the weather conditions in past years. The results will help you decide how hot, cold, wet, or windy it might be!

Date:

Astronomy

Aug. 03, 2013 Rise Set
Actual Time 6:14 AM CDT 7:58 PM CDT
Civil Twilight 5:47 AM CDT 8:25 PM CDT
Nautical Twilight 5:14 AM CDT 8:57 PM CDT
Astronomical Twilight 4:40 AM CDT 9:31 PM CDT
Moon 3:25 AM CDT (8/3) 5:39 PM CDT (8/3)
Length of Visible Light 14h 37m
Length of Day
13h 43m
Waning Crescent, 9% of the Moon is Illuminated
Aug 3
Waning Crescent
Aug 6
New
Aug 14
First Quarter
Aug 20
Full
Aug 28
Last Quarter

Hourly Weather History & Observations

Time (CDT) Temp. Heat Index Dew Point Humidity Pressure Visibility Wind Dir Wind Speed Gust Speed Precip Events Conditions
12:53 AM 79.0 °F - 71.1 °F 77% 29.98 in 10.0 mi South 4.6 mph - N/A   Clear
1:53 AM 73.9 °F - 71.1 °F 91% 29.98 in 9.0 mi SSW 3.5 mph - N/A   Clear
2:53 AM 73.9 °F - 71.1 °F 91% 29.97 in 8.0 mi Calm Calm - N/A   Clear
3:53 AM 73.0 °F - 71.1 °F 93% 29.96 in 7.0 mi Calm Calm - N/A   Clear
4:53 AM 73.0 °F - 71.1 °F 93% 29.96 in 7.0 mi South 3.5 mph - N/A   Clear
5:53 AM 73.0 °F - 71.1 °F 93% 29.96 in 6.0 mi South 3.5 mph - N/A   Clear
6:53 AM 73.0 °F - 72.0 °F 96% 29.98 in 5.0 mi Calm Calm - N/A   Clear
7:53 AM 77.0 °F - 73.9 °F 90% 30.01 in 5.0 mi SSW 5.8 mph - N/A   Clear
8:53 AM 80.1 °F 85.1 °F 75.0 °F 85% 30.03 in 7.0 mi SW 5.8 mph - N/A   Clear
9:53 AM 84.0 °F 92.6 °F 75.9 °F 76% 30.04 in 9.0 mi WSW 3.5 mph - N/A   Clear
10:53 AM 86.0 °F 96.9 °F 77.0 °F 74% 30.04 in 9.0 mi WSW 5.8 mph - N/A   Clear
11:53 AM 89.1 °F 101.4 °F 77.0 °F 67% 30.03 in 10.0 mi Variable 4.6 mph - N/A   Clear
12:53 PM 88.0 °F 100.2 °F 77.0 °F 70% 30.04 in 9.0 mi NW 4.6 mph - N/A   Mostly Cloudy
1:53 PM 90.0 °F 99.0 °F 73.9 °F 59% 30.03 in 10.0 mi NNW 4.6 mph - N/A   Partly Cloudy
2:53 PM 91.9 °F 103.2 °F 75.0 °F 58% 30.01 in 10.0 mi Calm Calm - N/A   Scattered Clouds
3:53 PM 91.9 °F 103.2 °F 75.0 °F 58% 29.99 in 10.0 mi Calm Calm - N/A   Partly Cloudy
4:53 PM 91.9 °F 101.3 °F 73.9 °F 55% 29.98 in 10.0 mi Calm Calm - N/A   Partly Cloudy
5:53 PM 91.9 °F 103.2 °F 75.0 °F 58% 29.97 in 10.0 mi Calm Calm - N/A   Clear
6:53 PM 89.1 °F 100.2 °F 75.9 °F 65% 29.98 in 9.0 mi Calm Calm - N/A   Partly Cloudy
7:53 PM 86.0 °F 96.0 °F 75.9 °F 72% 30.00 in 8.0 mi Calm Calm - N/A   Partly Cloudy
8:53 PM 81.0 °F 87.9 °F 77.0 °F 88% 30.01 in 9.0 mi Calm Calm - N/A   Clear
9:53 PM 79.0 °F - 75.9 °F 90% 30.03 in 6.0 mi Calm Calm - N/A   Clear
10:53 PM 78.1 °F - 75.0 °F 90% 30.04 in 4.0 mi Calm Calm - N/A   Clear
11:53 PM 77.0 °F - 75.9 °F 96% 30.04 in 4.0 mi Calm Calm - N/A   Clear